This demonstration page uses our WeatherBlox Daily Observations layout. Learn more.

Left ArrowRight Arrow

34.02893, -84.19858

Hourly Observations for April 16, 2019

Temp ( °F °C ) Dew Point ( °F °C ) Humidity (%) Winds ( mph kmh ) Pressure ( in mb ) Visibility ( mi km ) Precip ( " mm )
12:53 am 00:53 Clear 45 7.2 40 4.4 83 83 SSW 3 6 30.18 1022 10 16 0.00 0.00
1:53 am 01:53 Clear 45 7.2 40 4.4 83 83 Calm 30.18 1022 10 16 0.00 0.00
2:53 am 02:53 Clear 44 6.7 39 3.9 83 83 Calm 30.19 1022 10 16 0.00 0.00
3:53 am 03:53 Clear 42 5.6 40 4.4 92 92 Calm 30.17 1022 10 16 0.00 0.00
4:53 am 04:53 Clear 42 5.6 39 3.9 89 89 Calm 30.19 1023 10 16 0.00 0.00
5:53 am 05:53 Clear 42 5.6 38 3.3 85 85 NNE 3 6 30.20 1023 10 16 0.00 0.00
6:53 am 06:53 Clear 41 5 39 3.9 93 93 Calm 30.21 1023 10 16 0.00 0.00
7:53 am 07:53 Sunny 44 6.7 42 5.6 93 93 Calm 30.24 1024 10 16 0.00 0.00
8:53 am 08:53 Sunny 54 12.2 39 3.9 57 57 Calm 30.25 1024 10 16 0.00 0.00
9:53 am 09:53 Sunny 58 14.4 36 2.2 44 44 VRB 6 9 30.25 1025 10 16 0.00 0.00
10:53 am 10:53 Sunny 61 16.1 37 2.8 41 41 VRB 5 7 30.26 1025 10 16 0.00 0.00
11:53 am 11:53 Sunny 64 17.8 39 3.9 40 40 SSE 6 9 30.27 1025 10 16 0.00 0.00
12:53 pm 12:53 Sunny 67 19.4 38 3.3 35 35 VRB 6 9 30.25 1024 10 16 0.00 0.00
1:53 pm 13:53 Sunny 70 21.1 42 5.6 37 37 SSE 7 11 30.23 1024 10 16 0.00 0.00
2:53 pm 14:53 Sunny 72 22.2 41 5 33 33 VRB 5 7 30.21 1023 10 16 0.00 0.00
3:53 pm 15:53 Sunny 73 22.8 43 6.1 34 34 S 5 7 30.19 1022 10 16 0.00 0.00
4:53 pm 16:53 Sunny 74 23.3 44 6.7 34 34 SSW 8 13 30.17 1022 10 16 0.00 0.00
5:53 pm 17:53 Sunny 74 23.3 44 6.7 34 34 SW 8 13 30.15 1021 10 16 0.00 0.00
6:53 pm 18:53 Sunny 72 22.2 44 6.7 37 37 SSE 6 9 30.14 1021 10 16 0.00 0.00
7:53 pm 19:53 Sunny 69 20.6 44 6.7 41 41 SSE 5 7 30.14 1021 10 16 0.00 0.00
8:53 pm 20:53 Clear 62 16.7 46 7.8 56 56 SSE 5 7 30.15 1021 10 16 0.00 0.00
9:53 pm 21:53 Clear 58 14.4 47 8.3 67 67 Calm 30.17 1022 10 16 0.00 0.00
10:53 pm 22:53 Clear 58 14.4 46 7.8 65 65 Calm 30.16 1021 10 16 0.00 0.00
11:53 pm 23:53 Clear 54 12.2 48 8.9 80 80 Calm 30.16 1022 10 16 0.00 0.00

Powered by AerisWeather